TimeCDT,TemperatureF,Dew PointF,Humidity,Sea Level PressureIn,VisibilityMPH,Wind Direction,Wind SpeedMPH,Gust SpeedMPH,PrecipitationIn,Events,Conditions,WindDirDegrees,DateUTC
12:56 AM,68.0,64.0,87,29.95,10.0,North,4.6,-,N/A,,Clear,10,2012-10-07 05:56:00
1:56 AM,66.0,63.0,90,29.95,10.0,NNW,5.8,-,N/A,,Clear,340,2012-10-07 06:56:00
2:56 AM,64.0,62.1,93,29.95,10.0,NNW,6.9,-,N/A,,Clear,340,2012-10-07 07:56:00
3:11 AM,64.4,60.8,88,29.99,10.0,NNW,6.9,-,N/A,,Scattered Clouds,340,2012-10-07 08:11:00
3:21 AM,64.4,62.6,94,30.00,10.0,North,8.1,-,N/A,,Mostly Cloudy,350,2012-10-07 08:21:00
3:38 AM,64.4,60.8,88,30.00,10.0,North,12.7,-,N/A,,Overcast,350,2012-10-07 08:38:00
3:56 AM,66.0,62.1,87,29.96,10.0,North,9.2,-,N/A,,Overcast,360,2012-10-07 08:56:00
4:56 AM,63.0,60.1,90,29.96,10.0,North,11.5,-,N/A,,Overcast,360,2012-10-07 09:56:00
5:56 AM,63.0,60.1,90,29.98,10.0,North,10.4,-,N/A,,Overcast,360,2012-10-07 10:56:00
6:56 AM,62.1,59.0,90,29.99,10.0,North,9.2,-,N/A,,Overcast,10,2012-10-07 11:56:00
7:56 AM,61.0,59.0,93,30.01,10.0,NNW,11.5,-,N/A,,Overcast,340,2012-10-07 12:56:00
8:56 AM,62.1,59.0,90,30.04,10.0,North,11.5,-,N/A,,Overcast,350,2012-10-07 13:56:00
9:29 AM,62.6,57.2,82,30.09,10.0,NNW,13.8,-,N/A,,Overcast,340,2012-10-07 14:29:00
9:56 AM,63.0,57.9,84,30.05,10.0,North,13.8,-,N/A,,Overcast,10,2012-10-07 14:56:00
10:56 AM,64.0,57.9,80,30.05,10.0,NNW,11.5,-,N/A,,Overcast,340,2012-10-07 15:56:00
11:35 AM,66.2,59.0,78,30.08,10.0,NNW,13.8,-,N/A,,Overcast,340,2012-10-07 16:35:00
11:56 AM,69.1,59.0,70,30.03,10.0,North,11.5,-,N/A,,Mostly Cloudy,360,2012-10-07 16:56:00
12:03 PM,69.8,59.0,68,30.07,10.0,Variable,6.9,17.3,N/A,,Partly Cloudy,0,2012-10-07 17:03:00
12:56 PM,73.9,60.1,62,30.00,10.0,NNW,10.4,-,N/A,,Clear,340,2012-10-07 17:56:00
1:56 PM,78.1,62.1,58,29.97,10.0,North,10.4,-,N/A,,Clear,360,2012-10-07 18:56:00
2:56 PM,79.0,62.1,56,29.95,10.0,NNW,12.7,-,N/A,,Clear,340,2012-10-07 19:56:00
3:56 PM,79.0,62.1,56,29.95,10.0,NNW,9.2,-,N/A,,Clear,330,2012-10-07 20:56:00
4:56 PM,77.0,61.0,58,29.95,10.0,North,12.7,-,N/A,,Clear,360,2012-10-07 21:56:00
5:56 PM,72.0,60.1,66,29.96,10.0,NNW,10.4,-,N/A,,Clear,340,2012-10-07 22:56:00
6:56 PM,68.0,57.9,70,29.98,10.0,North,12.7,-,N/A,,Clear,350,2012-10-07 23:56:00
7:56 PM,64.0,57.9,80,30.01,10.0,NNW,8.1,-,N/A,,Clear,340,2012-10-08 00:56:00
8:56 PM,63.0,55.9,78,30.04,10.0,North,9.2,-,N/A,,Clear,360,2012-10-08 01:56:00
9:56 PM,62.1,54.0,75,30.04,10.0,North,12.7,-,N/A,,Clear,360,2012-10-08 02:56:00
10:56 PM,60.1,53.1,78,30.04,10.0,North,8.1,-,N/A,,Clear,360,2012-10-08 03:56:00
11:56 PM,57.9,52.0,81,30.04,10.0,North,8.1,-,N/A,,Clear,350,2012-10-08 04:56:00